Location: Castro Valley
(37.6940°N, 122.0850°W)
Time: 03:07:00
(UTC-07:00)

Amateur Radio Satellites - All Passes

Search period start: 29 May 2015 02:37
Search period end: 30 May 2015 02:37
Location: Castro Valley, 37.6940°N, 122.0850°W

Satellite Date Start Highest point End Downlink Frequencies (MHz)
Time Altitude Azimuth
SWISSCUBE 29 May 02:44:39 02:48:56 33° 263° (W) 02:53:12 437.505
PHONESAT 2.4 29 May 02:58:18 03:01:47 74° 161° (SSE) 03:05:16 2401.200-2431.200
O/OREOS (USA 219) 29 May 02:59:06 03:01:47 15° 259° (W) 03:04:18 437.305
STARS 29 May 03:00:49 03:04:49 35° 72° (ENE) 03:08:54 437.465
Gurwin Techsat 1B 29 May 03:06:18 03:11:14 38° 97° (E) 03:16:12 435.225
BEESAT 2 29 May 03:10:41 03:14:49 87° 66° (ENE) 03:18:50 435.950
AIST 2 29 May 03:15:46 03:19:24 28° 51° (NE) 03:23:01 435.215
Oscar 19 29 May 03:35:39 03:40:08 30° 291° (WNW) 03:44:31 437.125/150
KKS-1 29 May 03:38:24 03:42:46 52° 260° (W) 03:47:11 437.445
Cosmos 2499 29 May 03:39:40 03:46:06 38° 270° (W) 03:52:35 435.465 / 435.565
VERMONT LUNAR 29 May 03:39:42 03:42:50 48° 360° (N) 03:45:57 437.305
MOZHAYETS 4 29 May 03:49:50 03:52:19 15° 67° (ENE) 03:55:01
ITAMSAT 1 29 May 03:54:16 03:59:28 70° 286° (WNW) 04:04:41 435.822/435.867
BEESAT 3 29 May 03:57:19 04:00:30 22° 248° (WSW) 04:03:34 437.485
JAS-2 29 May 03:58:19 04:02:01 20° 93° (E) 04:06:02 435.910
ISS 29 May 04:00:31 04:01:45 12° 18° (NNE) 04:03:02 145.825
SO-50 29 May 04:06:25 04:10:29 27° 311° (NW) 04:14:36 436.795
HORYU 2 29 May 04:24:49 04:28:55 36° 98° (E) 04:32:59 437.375
PHONESAT 2.4 29 May 04:36:36 04:40:01 52° 356° (N) 04:43:26 2401.200-2431.200
STARS 29 May 04:38:09 04:41:24 19° 267° (W) 04:44:31 437.465
Gurwin Techsat 1B 29 May 04:46:44 04:51:03 25° 292° (WNW) 04:55:13 435.225
AIST 2 29 May 04:54:23 04:57:54 25° 247° (WSW) 05:01:17 435.215
AO-7 29 May 04:56:48 05:05:00 57° 102° (ESE) 05:13:12 29.400- 29.500
VERMONT LUNAR 29 May 05:16:59 05:20:12 84° 15° (NNE) 05:23:23 437.305
MOZHAYETS 4 29 May 05:24:45 05:29:11 49° 261° (W) 05:33:38
CUBESAT XI-V 29 May 05:35:08 05:37:47 16° 67° (ENE) 05:40:37 437.345
ISS 29 May 05:35:34 05:38:47 53° 37° (NE) 05:41:59 145.825
JAS-2 29 May 05:42:33 05:47:25 41° 288° (WNW) 05:52:27 435.910
Cosmos 2491 29 May 05:47:07 05:54:29 30° 69° (ENE) 06:02:02 435.465 / 435.565
HORYU 2 29 May 06:02:09 06:05:19 19° 292° (WNW) 06:08:20 437.375
STRAND 1 29 May 06:14:24 06:17:50 19° 66° (ENE) 06:21:28 437.568
PHONESAT 2.4 29 May 06:14:53 06:18:21 72° 13° (NNE) 06:21:48 2401.200-2431.200
CUTE-I 29 May 06:25:57 06:29:36 19° 92° (E) 06:33:26 437.470
YUBILEINY 29 May 06:36:13 06:42:59 27° 85° (E) 06:50:02 435.215
Cubesat XI-IV 29 May 06:46:33 06:51:14 30° 96° (E) 06:55:58 437.490
AO-7 29 May 06:50:15 06:57:26 32° 299° (WNW) 07:04:26 29.400- 29.500
VERMONT LUNAR 29 May 06:54:37 06:57:09 21° 211° (SSW) 06:59:38 437.305
CUBESAT XI-V 29 May 07:10:25 07:14:51 48° 261° (W) 07:19:20 437.345
ISS 29 May 07:13:11 07:14:55 13° 231° (SW) 07:16:32 145.825
PRISM 29 May 07:28:37 07:32:39 62° 259° (W) 07:36:43 437.425
M-CUBED/EXP-1 PRIME 29 May 07:39:26 07:43:39 79° 251° (WSW) 07:47:34 437.505
Cosmos 2491 29 May 07:43:18 07:51:52 56° 269° (W) 08:00:18 435.465 / 435.565
BRITE-PL 29 May 07:44:37 07:44:57 10° 84° (E) 07:45:42 437.365/2234.400
AUBIESAT-1 29 May 07:45:11 07:49:21 78° 252° (WSW) 07:53:13 437.475
STRAND 1 29 May 07:51:49 07:56:43 47° 261° (W) 08:01:39 437.568
PHONESAT 2.4 29 May 07:53:12 07:56:19 31° 209° (SSW) 07:59:25 2401.200-2431.200
AIST 1 29 May 08:03:11 08:07:36 83° 83° (E) 08:12:00
CUTE-I 29 May 08:04:48 08:10:00 49° 288° (WNW) 08:15:08 437.470
Cubesat XI-IV 29 May 08:26:35 08:31:18 31° 291° (WNW) 08:35:57 437.490
PCSat 29 May 08:27:19 08:29:15 12° 41° (NE) 08:31:26 145.827
YUBILEINY 29 May 08:30:40 08:39:18 60° 282° (WNW) 08:47:54 435.215
HO-68 29 May 08:34:49 08:39:23 19° 90° (E) 08:44:18 435.675
RS-15 29 May 08:37:29 08:47:58 59° 113° (ESE) 08:58:47 29.354- 29.394
GOMX 1 29 May 09:08:15 09:13:20 45° 97° (E) 09:18:06 467.674
CINEMA 3 29 May 09:16:31 09:18:59 15° 89° (E) 09:21:36 145.822/145.860
BRITE-PL 29 May 09:18:44 09:24:24 89° 289° (WNW) 09:29:42 437.365/2234.400
CANX-2 29 May 09:24:40 09:28:39 41° 98° (E) 09:32:39 2200.000
CUTE 1.7 + AOD 2 29 May 09:27:50 09:31:48 40° 98° (E) 09:35:46 437.475
SEEDS 29 May 09:46:10 09:50:16 54° 100° (E) 09:54:21 437.485
Oscar 11 29 May 09:46:33 09:49:10 16° 92° (E) 09:51:57 145.826/435.025
CUBEBUG 2 29 May 09:50:11 09:52:48 16° 91° (E) 09:55:33 437.445
ANTELSAT 29 May 09:52:39 09:55:36 17° 68° (ENE) 09:58:41 437.575/2403.000
COMPASS 1 29 May 09:55:07 09:59:12 55° 100° (E) 10:03:16 437.405
DOVE 4 29 May 09:56:12 10:01:17 90° 325° (NW) 10:06:02 437.250
JUGNU 29 May 09:58:15 09:59:47 11° 171° (S) 10:01:22 437.505
Cosmos 2504 29 May 09:58:42 10:06:47 58° 93° (E) 10:14:23 435.465 / 435.565
AAUSAT CUBESAT 2 29 May 10:04:56 10:09:03 62° 100° (E) 10:13:08 437.432
PCSat 29 May 10:08:16 10:13:44 75° 62° (ENE) 10:19:08 145.827
DELFI C3 29 May 10:14:57 10:18:10 23° 95° (E) 10:21:27 145.870
QB50P1 29 May 10:16:17 10:17:54 12° 66° (ENE) 10:19:46 145.935-145.965
POLYITAN 1 29 May 10:19:19 10:21:23 14° 67° (ENE) 10:23:40 437.675
HO-68 29 May 10:20:43 10:27:51 73° 288° (WNW) 10:34:57 435.675
TIGRISAT 29 May 10:22:48 10:26:59 34° 72° (ENE) 10:31:12 435.000
UWE-3 29 May 10:30:48 10:34:49 37° 97° (E) 10:38:45 435.000/436.395/437.385
FUNcube-1 29 May 10:33:44 10:37:29 30° 96° (E) 10:41:12 145.935
UNISAT 6 29 May 10:43:58 10:48:35 60° 75° (ENE) 10:53:10 437.425
NANOSAT C BR1 29 May 10:44:35 10:48:02 25° 70° (ENE) 10:51:36 145.865
GOMX 1 29 May 10:47:09 10:51:04 21° 294° (WNW) 10:54:41 467.674
HUMSAT D 29 May 10:48:02 10:50:58 19° 93° (E) 10:53:59 437.325/437.525
RS-15 29 May 10:50:45 11:00:54 41° 316° (NW) 11:11:14 29.354- 29.394
CINEMA 3 29 May 10:52:06 10:56:34 46° 287° (WNW) 11:00:49 145.822/145.860
QB50P2 29 May 10:54:14 10:58:04 33° 72° (ENE) 11:01:58 145.880/145.840
SO-50 29 May 10:59:00 11:02:52 23° 46° (NE) 11:06:48 436.795
BRITE-PL 29 May 11:00:01 11:02:05 12° 298° (WNW) 11:03:47 437.365/2234.400
CANX-2 29 May 11:01:47 11:04:17 15° 292° (WNW) 11:06:38 2200.000
CUTE 1.7 + AOD 2 29 May 11:04:51 11:07:26 15° 292° (WNW) 11:09:50 437.475
DUCHIFAT 1 29 May 11:05:16 11:09:17 42° 73° (ENE) 11:13:21 145.980
POPSAT HIP 1 29 May 11:05:33 11:09:37 43° 73° (ENE) 11:13:44 437.405
50 SAT 29 May 11:07:01 11:09:25 16° 92° (E) 11:11:55 437.505
UKube-1 29 May 11:11:23 11:15:22 34° 98° (E) 11:19:20 .
ZACube-1 29 May 11:15:05 11:19:24 83° 284° (WNW) 11:23:35 437.345
BUGSAT 1 29 May 11:16:13 11:20:02 37° 73° (ENE) 11:23:58 437.445
Oscar 11 29 May 11:21:32 11:25:33 38° 287° (WNW) 11:29:30 145.826/435.025
DX 1 29 May 11:23:57 11:28:15 53° 100° (E) 11:32:33 434.975-435.025
SEEDS 29 May 11:24:04 11:25:39 12° 294° (WNW) 11:27:00 437.485
CUBEBUG 2 29 May 11:25:38 11:29:45 38° 288° (WNW) 11:33:42 437.445
ANTELSAT 29 May 11:27:34 11:32:05 45° 262° (W) 11:36:31 437.575/2403.000
COMPASS 1 29 May 11:33:00 11:34:27 11° 294° (WNW) 11:35:41 437.405
CUBEBUG 1 29 May 11:39:49 11:43:00 20° 93° (E) 11:46:17 437.445
AAUSAT CUBESAT 2 29 May 11:43:38 11:44:12 10° 294° (WNW) 11:44:31 437.432
JUGNU 29 May 11:45:15 11:47:57 13° 181° (S) 11:50:40 437.505
VELOX 1 29 May 11:48:40 11:53:01 49° 99° (E) 11:57:21 145.980
QB50P1 29 May 11:49:08 11:53:21 55° 260° (W) 11:57:35 145.935-145.965
DELFI C3 29 May 11:49:59 11:53:13 23° 289° (WNW) 11:56:22 145.870
POLYITAN 1 29 May 11:52:44 11:56:55 49° 261° (W) 12:01:07 437.675
Cosmos 2504 29 May 11:53:49 12:00:36 26° 290° (WNW) 12:06:48 435.465 / 435.565
PCSat 29 May 11:54:06 11:56:34 13° 255° (WSW) 11:58:42 145.827
DANDE 29 May 11:56:06 12:00:45 19° 81° (E) 12:06:16 436.750
TIGRISAT 29 May 12:00:09 12:03:48 22° 266° (W) 12:07:19 435.000
ESTCUBE 1 29 May 12:02:18 12:06:35 41° 98° (E) 12:10:53 437.505/2401.250
CUSAT 1 29 May 12:06:58 12:13:11 30° 86° (E) 12:20:12 437.405
UWE-3 29 May 12:08:10 12:11:05 17° 292° (WNW) 12:13:47 435.000/436.395/437.385
SPROUT 29 May 12:10:17 12:10:49 10° 88° (E) 12:11:40 437.525
FUNcube-1 29 May 12:10:27 12:13:39 20° 291° (WNW) 12:16:43 145.935
HO-68 29 May 12:11:25 12:14:32 13° 305° (NW) 12:17:12 435.675
NANOSAT C BR1 29 May 12:20:16 12:23:49 25° 265° (W) 12:27:20 145.865
AISAT 29 May 12:21:15 12:25:44 68° 285° (WNW) 12:30:10 437.250
HUMSAT D 29 May 12:23:09 12:26:47 29° 288° (WNW) 12:30:20 437.325/437.525
UNISAT 6 29 May 12:23:49 12:25:48 12° 271° (W) 12:27:30 437.425
QB50P2 29 May 12:30:59 12:34:05 19° 267° (W) 12:37:03 145.880/145.840
SO-50 29 May 12:38:55 12:43:42 47° 244° (WSW) 12:48:20 436.795
50 SAT 29 May 12:40:48 12:44:14 30° 288° (WNW) 12:47:35 437.505
DUCHIFAT 1 29 May 12:42:51 12:45:21 15° 269° (W) 12:47:40 145.980
POPSAT HIP 1 29 May 12:43:20 12:45:46 14° 269° (W) 12:48:00 437.405
UKube-1 29 May 12:48:07 12:51:16 19° 292° (WNW) 12:54:18 .
BUGSAT 1 29 May 12:53:06 12:55:43 16° 269° (W) 12:58:11 437.445
GONETS M04 29 May 12:59:44 13:08:08 52° 90° (E) 13:16:39
DX 1 29 May 13:01:51 13:04:06 14° 294° (WNW) 13:06:08 434.975-435.025
SRMSAT 29 May 13:07:43 13:10:23 13° 179° (S) 13:13:03 437.500
RS-15 29 May 13:11:05 13:17:46 17° 349° (N) 13:24:25 29.354- 29.394
Oscar 19 29 May 13:11:17 13:15:58 36° 70° (ENE) 13:20:43 437.125/150
CUBEBUG 1 29 May 13:15:25 13:19:28 34° 288° (WNW) 13:23:27 437.445
VELOX 1 29 May 13:26:35 13:29:12 15° 294° (WNW) 13:31:38 145.980
ITAMSAT 1 29 May 13:33:16 13:36:28 17° 65° (ENE) 13:39:51 435.822/435.867
DANDE 29 May 13:35:38 13:42:54 84° 279° (W) 13:51:29 436.750
ESTCUBE 1 29 May 13:40:05 13:43:11 18° 292° (WNW) 13:46:08 437.505/2401.250
SPROUT 29 May 13:43:06 13:47:23 60° 285° (WNW) 13:51:38 437.525
CUSAT 1 29 May 13:48:05 13:55:27 56° 285° (WNW) 14:03:37 437.405
TISAT 1 29 May 13:55:20 13:59:34 60° 285° (WNW) 14:03:44 437.305
AO-7 29 May 14:06:59 14:10:13 13° 50° (NE) 14:13:58 29.400- 29.500
Cosmos 2499 29 May 14:21:12 14:27:51 30° 88° (E) 14:34:19 435.465 / 435.565
Gurwin Techsat 1B 29 May 14:25:29 14:30:35 51° 73° (ENE) 14:35:44 435.225
ITUPSAT 1 29 May 14:31:29 14:36:04 44° 99° (E) 14:40:40 437.325
BEESAT 29 May 14:37:15 14:41:55 53° 100° (E) 14:46:36 436.000
SWISSCUBE 29 May 14:46:09 14:50:57 73° 102° (ESE) 14:55:43 437.505
Oscar 19 29 May 14:51:09 14:55:25 25° 266° (W) 14:59:35 437.125/150
SRMSAT 29 May 14:57:20 14:58:42 11° 189° (S) 15:00:01 437.500
GONETS M04 29 May 14:57:36 15:05:23 32° 290° (WNW) 15:12:59
ITAMSAT 1 29 May 15:10:30 15:15:34 55° 260° (W) 15:20:40 435.822/435.867
HORYU 2 29 May 15:21:29 15:25:15 28° 70° (ENE) 15:29:06 437.375
DANDE 29 May 15:22:37 15:27:45 18° 301° (WNW) 15:32:46 436.750
RS-15 29 May 15:28:10 15:36:15 22° 24° (NNE) 15:44:55 29.354- 29.394
O/OREOS (USA 219) 29 May 15:28:29 15:32:58 75° 109° (ESE) 15:37:28 437.305
KKS-1 29 May 15:31:33 15:35:36 33° 97° (E) 15:39:39 437.445
CUSAT 1 29 May 15:38:21 15:40:20 11° 306° (NW) 15:41:38 437.405
JAS-2 29 May 15:51:31 15:58:03 63° 74° (ENE) 16:03:51 435.910
AO-7 29 May 15:53:29 16:01:37 65° 69° (ENE) 16:09:50 29.400- 29.500
Gurwin Techsat 1B 29 May 16:07:15 16:10:55 18° 269° (W) 16:14:22 435.225
ITUPSAT 1 29 May 16:10:21 16:13:40 18° 293° (WNW) 16:16:49 437.325
Cosmos 2499 29 May 16:13:02 16:20:47 48° 283° (WNW) 16:27:58 435.465 / 435.565
BEESAT 29 May 16:16:29 16:19:23 16° 294° (WNW) 16:22:05 436.000
SWISSCUBE 29 May 16:26:29 16:28:16 12° 296° (WNW) 16:29:47 437.505
STARS 29 May 16:28:14 16:32:41 89° 284° (WNW) 16:37:04 437.465
YUBILEINY 29 May 16:51:28 16:52:31 10° 56° (NE) 16:54:22 435.215
HORYU 2 29 May 16:58:10 17:01:53 25° 265° (W) 17:05:31 437.375
BEESAT 2 29 May 17:03:06 17:06:26 25° 113° (ESE) 17:09:52 435.950
KKS-1 29 May 17:08:40 17:12:02 21° 292° (WNW) 17:15:17 437.445
O/OREOS (USA 219) 29 May 17:11:44 17:13:02 11° 308° (NW) 17:14:05 437.305
MOZHAYETS 4 29 May 17:21:38 17:25:59 43° 98° (E) 17:30:21
JAS-2 29 May 17:39:02 17:43:30 18° 268° (W) 17:47:22 435.910
RS-15 29 May 17:40:22 17:51:51 62° 53° (NE) 18:03:52 29.354- 29.394
CUTE-I 29 May 17:45:54 17:50:13 27° 68° (ENE) 17:54:39 437.470
BEESAT 3 29 May 17:47:11 17:51:15 80° 300° (WNW) 17:55:23 437.485
AO-7 29 May 17:48:19 17:55:02 26° 267° (W) 18:01:29 29.400- 29.500
Cubesat XI-IV 29 May 18:06:43 18:11:40 42° 71° (ENE) 18:16:41 437.490
BEESAT 2 29 May 18:40:52 18:44:26 27° 309° (NW) 18:48:00 435.950
YUBILEINY 29 May 18:42:59 18:51:36 64° 79° (E) 19:00:13 435.215
Cosmos 2491 29 May 18:45:57 18:53:36 36° 87° (E) 19:01:29 435.465 / 435.565
AIST 2 29 May 18:49:30 18:53:46 78° 302° (WNW) 18:58:04 435.215
BRITE-PL 29 May 18:53:26 18:54:20 11° 61° (ENE) 18:55:37 437.365/2234.400
MOZHAYETS 4 29 May 18:59:53 19:02:55 17° 292° (WNW) 19:05:47
HO-68 29 May 19:04:26 19:07:01 13° 55° (NE) 19:10:03 435.675
CUBESAT XI-V 29 May 19:08:46 19:13:19 48° 99° (E) 19:17:52 437.345
PRISM 29 May 19:13:26 19:16:28 20° 94° (E) 19:19:38 437.425
CUTE-I 29 May 19:25:19 19:30:10 35° 263° (W) 19:35:01 437.470
Cubesat XI-IV 29 May 19:47:51 19:51:58 22° 267° (W) 19:55:59 437.490
RS-15 29 May 19:53:25 20:03:58 39° 252° (WSW) 20:14:32 29.354- 29.394
Cosmos 2504 29 May 19:55:22 19:58:59 15° 64° (ENE) 20:03:02 435.465 / 435.565
STRAND 1 29 May 20:03:56 20:09:04 68° 101° (E) 20:14:12 437.568
GOMX 1 29 May 20:13:44 20:18:32 41° 72° (ENE) 20:23:39 467.674
CANX-2 29 May 20:16:13 20:19:38 24° 71° (ENE) 20:23:07 2200.000
CINEMA 3 29 May 20:16:40 20:19:04 14° 65° (ENE) 20:21:44 145.822/145.860
CUTE 1.7 + AOD 2 29 May 20:19:20 20:22:41 24° 70° (ENE) 20:26:08 437.475
BRITE-PL 29 May 20:26:49 20:31:58 84° 78° (ENE) 20:37:32 437.365/2234.400
AIST 1 29 May 20:30:38 20:34:45 52° 94° (E) 20:38:56
SEEDS 29 May 20:36:36 20:40:16 30° 72° (ENE) 20:43:58 437.485
YUBILEINY 29 May 20:41:05 20:47:49 25° 276° (W) 20:54:13 435.215
Oscar 11 29 May 20:41:30 20:42:30 11° 66° (ENE) 20:43:45 145.826/435.025
Cosmos 2491 29 May 20:41:56 20:50:19 46° 285° (WNW) 20:58:41 435.465 / 435.565
COMPASS 1 29 May 20:44:45 20:48:22 29° 72° (ENE) 20:52:02 437.405
HO-68 29 May 20:46:33 20:53:41 71° 72° (ENE) 21:00:51 435.675
CUBEBUG 2 29 May 20:47:15 20:49:28 14° 66° (ENE) 20:51:54 437.445
CUBESAT XI-V 29 May 20:47:23 20:50:25 17° 293° (WNW) 20:53:15 437.345
PRISM 29 May 20:48:19 20:51:58 29° 289° (WNW) 20:55:34 437.425
AAUSAT CUBESAT 2 29 May 20:54:03 20:57:45 32° 72° (ENE) 21:01:28 437.432
M-CUBED/EXP-1 PRIME 29 May 20:57:07 21:00:24 70° 289° (WNW) 21:03:45 437.505
DOVE 4 29 May 20:58:49 21:03:56 74° 77° (ENE) 21:09:17 437.250
AUBIESAT-1 29 May 21:02:12 21:05:30 71° 289° (WNW) 21:08:51 437.475
DELFI C3 29 May 21:02:17 21:03:49 12° 67° (ENE) 21:05:34 145.870
UWE-3 29 May 21:25:59 21:29:52 27° 71° (ENE) 21:33:48 435.000/436.395/437.385
FUNcube-1 29 May 21:27:52 21:31:17 22° 69° (ENE) 21:34:48 145.935
HUMSAT D 29 May 21:39:27 21:41:07 12° 67° (ENE) 21:43:01 437.325/437.525
STRAND 1 29 May 21:45:00 21:47:46 14° 296° (WNW) 21:50:18 437.568
Cosmos 2504 29 May 21:46:15 21:53:27 83° 264° (W) 22:00:43 435.465 / 435.565
CINEMA 3 29 May 21:50:46 21:55:45 67° 259° (W) 22:00:47 145.822/145.860
CANX-2 29 May 21:51:56 21:55:30 25° 265° (W) 21:58:59 2200.000
GOMX 1 29 May 21:52:40 21:56:50 23° 269° (W) 22:01:02 467.674
CUTE 1.7 + AOD 2 29 May 21:54:55 21:58:32 26° 265° (W) 22:02:04 437.475
UKube-1 29 May 22:04:50 22:08:15 24° 69° (ENE) 22:11:47 .
ZACube-1 29 May 22:08:34 22:13:05 61° 75° (ENE) 22:17:37 437.345
BRITE-PL 29 May 22:10:10 22:11:23 10° 276° (W) 22:12:12 437.365/2234.400
AIST 1 29 May 22:11:24 22:12:52 11° 292° (WNW) 22:14:05
SEEDS 29 May 22:12:58 22:16:07 20° 267° (W) 22:19:10 437.485
ISS 29 May 22:13:20 22:16:25 43° 136° (SE) 22:19:32 145.825
Oscar 11 29 May 22:13:55 22:18:13 64° 259° (W) 22:22:31 145.826/435.025
DX 1 29 May 22:17:48 22:21:46 36° 72° (ENE) 22:25:48 434.975-435.025
CUBEBUG 2 29 May 22:20:57 22:25:41 62° 260° (W) 22:30:25 437.445
COMPASS 1 29 May 22:20:58 22:24:06 20° 267° (W) 22:27:07 437.405
AAUSAT CUBESAT 2 29 May 22:30:31 22:33:27 18° 267° (W) 22:36:15 437.432
DELFI C3 29 May 22:34:40 22:38:33 47° 261° (W) 22:42:28 145.870
CUBEBUG 1 29 May 22:35:25 22:37:31 14° 66° (ENE) 22:39:50 437.445
HO-68 29 May 22:37:03 22:42:07 19° 269° (W) 22:46:50 435.675
UNISAT 6 29 May 22:39:49 22:41:50 13° 90° (E) 22:44:04 437.425
DOVE 4 29 May 22:40:11 22:42:22 12° 274° (W) 22:44:14 437.250
DANDE 29 May 22:41:24 22:44:03 12° 54° (NE) 22:46:57 436.750
VELOX 1 29 May 22:44:33 22:48:32 34° 72° (ENE) 22:52:37 145.980
CUSAT 1 29 May 22:49:52 22:53:51 17° 59° (ENE) 22:57:34 437.405
ESTCUBE 1 29 May 23:00:24 23:04:16 30° 71° (ENE) 23:08:13 437.505/2401.250
UWE-3 29 May 23:02:17 23:06:19 28° 265° (W) 23:10:17 435.000/436.395/437.385
FUNcube-1 29 May 23:03:15 23:07:26 34° 264° (W) 23:11:33 145.935
PCSat 29 May 23:08:45 23:10:24 12° 104° (ESE) 23:12:25 145.827
HUMSAT D 29 May 23:12:13 23:16:27 55° 260° (W) 23:20:41 437.325/437.525
GONETS M04 29 May 23:13:13 23:19:37 23° 66° (ENE) 23:26:20
AISAT 29 May 23:16:52 23:21:19 85° 77° (ENE) 23:25:49 437.250
ANTELSAT 29 May 23:21:36 23:25:43 41° 98° (E) 23:29:46 437.575/2403.000
50 SAT 29 May 23:22:47 23:26:46 74° 258° (WSW) 23:30:46 437.505
VERMONT LUNAR 29 May 23:31:23 23:32:56 13° 146° (SE) 23:34:35 437.305
QB50P1 29 May 23:36:34 23:40:08 26° 95° (E) 23:43:45 145.935-145.965
POLYITAN 1 29 May 23:40:19 23:44:03 29° 96° (E) 23:47:48 437.675
UKube-1 29 May 23:40:36 23:44:18 27° 264° (W) 23:47:58 .
Cosmos 2504 29 May 23:44:03 23:45:51 11° 280° (W) 23:47:01 435.465 / 435.565
ZACube-1 29 May 23:48:11 23:49:54 12° 271° (W) 23:51:19 437.345
ISS 29 May 23:50:24 23:52:59 21° 332° (NNW) 23:55:33 145.825
TIGRISAT 29 May 23:52:42 23:57:04 86° 284° (WNW) 00:01:19 435.000
DX 1 29 May 23:55:08 23:58:10 18° 267° (W) 00:01:05 434.975-435.025
O/OREOS (USA 219) 30 May 00:04:16 00:04:41 10° 52° (NE) 00:05:23 437.305
NANOSAT C BR1 30 May 00:06:10 00:10:24 59° 101° (E) 00:14:34 145.865
CUBEBUG 1 30 May 00:09:14 00:13:28 51° 260° (W) 00:17:46 437.445
UNISAT 6 30 May 00:14:47 00:18:58 45° 286° (WNW) 00:23:02 437.425
QB50P2 30 May 00:16:40 00:20:58 83° 102° (ESE) 00:25:13 145.880/145.840
DANDE 30 May 00:21:43 00:29:13 78° 79° (E) 00:34:52 436.750
VELOX 1 30 May 00:21:58 00:25:13 19° 267° (W) 00:28:22 145.980
DUCHIFAT 1 30 May 00:27:16 00:31:32 79° 284° (WNW) 00:35:46 145.980
POPSAT HIP 1 30 May 00:28:07 00:32:24 75° 284° (WNW) 00:36:37 437.405
CUSAT 1 30 May 00:30:59 00:37:41 68° 266° (W) 00:42:41 437.405
SPROUT 30 May 00:35:00 00:39:19 81° 77° (ENE) 00:43:41 437.525
BUGSAT 1 30 May 00:35:13 00:39:30 87° 100° (E) 00:43:44 437.445
ESTCUBE 1 30 May 00:37:38 00:41:11 22° 266° (W) 00:44:39 437.505/2401.250
PHONESAT 2.4 30 May 00:40:04 00:41:39 13° 145° (SE) 00:43:20 2401.200-2431.200
TISAT 1 30 May 00:45:14 00:49:28 77° 77° (ENE) 00:53:45 437.305
PCSat 30 May 00:47:48 00:53:13 80° 299° (WNW) 00:58:41 145.827
ANTELSAT 30 May 00:59:30 01:02:11 16° 293° (WNW) 01:04:41 437.575/2403.000
VERMONT LUNAR 30 May 01:06:33 01:09:46 65° 159° (SSE) 01:12:58 437.305
GONETS M04 30 May 01:08:42 01:17:26 72° 266° (W) 01:26:03
QB50P1 30 May 01:12:28 01:15:55 23° 290° (WNW) 01:19:15 145.935-145.965
POLYITAN 1 30 May 01:16:32 01:19:48 21° 291° (WNW) 01:22:58 437.675
BEESAT 2 30 May 01:25:14 01:26:29 11° 42° (NE) 01:27:55 435.950
Oscar 19 30 May 01:26:09 01:28:44 14° 90° (E) 01:31:35 437.125/150
ITUPSAT 1 30 May 01:36:32 01:40:59 42° 72° (ENE) 01:45:29 437.325
O/OREOS (USA 219) 30 May 01:40:18 01:44:47 79° 252° (WSW) 01:49:15 437.305
BEESAT 30 May 01:41:53 01:46:26 49° 73° (ENE) 01:51:03 436.000
NANOSAT C BR1 30 May 01:44:16 01:45:47 11° 294° (WNW) 01:47:03 145.865
SWISSCUBE 30 May 01:50:48 01:55:30 67° 74° (ENE) 02:00:13 437.505
Cosmos 2499 30 May 02:05:44 02:12:33 51° 78° (ENE) 02:19:36 435.465 / 435.565
DANDE 30 May 02:07:16 02:11:11 15° 281° (W) 02:14:17 436.750
BEESAT 3 30 May 02:07:49 02:11:31 33° 53° (NE) 02:15:12 437.485
PHONESAT 2.4 30 May 02:15:54 02:19:21 60° 158° (SSE) 02:22:48 2401.200-2431.200
KKS-1 30 May 02:28:12 02:31:50 25° 70° (ENE) 02:35:34 437.445
